Language: 


Des rapports , des résumés tant et plus, au choix de chacun....


Données Historiques de Météogheer
Journalier Rapport pour Décembre 31, 2017 Unitée:  Métrique    Impériale   Les deux
Suivant Jour »
Journalier Hebdomadaire Mensuel Annuel Sur mesure
  Max: Min: Moyenne:
Température: 14.2 °C 7.4 °C 11.8 °C
Point de rosée: 13.0 °C 5.0 °C 11.1 °C
Humidité: 98% 76% 93%
Vent: 53.3km/h 0.0km/h 21.3km/h
Rafales: 60.2km/h - -
Vent- - SW
Pression: 1002.9 hPa 996.2 hPa -
Pluie: 18.5 mm    
Historical Graphs
 
 
Données tabulaires pour Décembre 31, 2017
Heure Température Point de rosée Pression Vent Vent Rafales Humidité Pluie Taux (Horaire) Conditions
00:01 10.5 °C 11.0 °C 1002.9 hPa South 6.1 km/h 11.6 km/h 98% 0.8 mm
00:03 10.5 °C 11.0 °C 1002.9 hPa SSW 6.4 km/h 11.9 km/h 98% 0.8 mm
00:08 10.5 °C 11.0 °C 1002.9 hPa South 11.1 km/h 13.7 km/h 98% 0.5 mm
00:13 10.6 °C 11.0 °C 1002.9 hPa Calm   13.7 km/h 98% 0.5 mm
00:16 10.6 °C 11.0 °C 1002.9 hPa Calm   13.7 km/h 98% 0.5 mm
00:21 10.6 °C 11.0 °C 1002.9 hPa South 7.9 km/h 12.6 km/h 98% 0.5 mm
00:22 10.6 °C 11.0 °C 1002.9 hPa SSW 9.7 km/h 12.6 km/h 98% 0.8 mm
00:26 10.6 °C 11.0 °C 1002.9 hPa Calm   12.6 km/h 98% 0.5 mm
00:29 10.7 °C 11.0 °C 1002.9 hPa South 8.7 km/h 14.0 km/h 98% 1.0 mm
00:34 10.8 °C 11.0 °C 1002.9 hPa SSW 6.9 km/h 14.0 km/h 98% 1.0 mm
00:39 10.9 °C 11.0 °C 1002.9 hPa South 10.1 km/h 14.0 km/h 98% 1.3 mm
00:44 10.9 °C 11.0 °C 1001.9 hPa SSW 6.4 km/h 13.0 km/h 98% 1.3 mm
00:48 11.0 °C 11.0 °C 1001.9 hPa SSW 1.8 km/h 11.9 km/h 98% 1.0 mm
00:53 11.1 °C 11.0 °C 1001.9 hPa South 8.7 km/h 14.3 km/h 98% 1.3 mm
00:55 11.1 °C 11.0 °C 1001.9 hPa SW 10.1 km/h 14.3 km/h 98% 1.5 mm
01:00 11.2 °C 11.0 °C 1002.9 hPa SSW 10.5 km/h 13.0 km/h 98% 1.8 mm
01:04 11.3 °C 11.0 °C 1002.9 hPa SSW 9.3 km/h 14.0 km/h 98% 2.3 mm
01:06 11.3 °C 11.0 °C 1002.9 hPa SW 13.0 km/h 14.0 km/h 98% 2.3 mm
01:10 11.4 °C 11.0 °C 1002.9 hPa SSW 10.5 km/h 16.6 km/h 98% 2.5 mm
01:13 11.5 °C 12.0 °C 1002.9 hPa SSW 9.3 km/h 16.6 km/h 98% 2.5 mm
01:18 11.6 °C 12.0 °C 1002.9 hPa SSW 15.1 km/h 16.6 km/h 98% 2.8 mm
01:22 11.6 °C 12.0 °C 1002.9 hPa WSW 13.0 km/h 17.2 km/h 98% 2.8 mm
01:27 11.8 °C 12.0 °C 1002.9 hPa WSW 14.3 km/h 17.7 km/h 98% 3.0 mm
01:29 11.9 °C 12.0 °C 1002.9 hPa SSW 15.8 km/h 21.6 km/h 98% 2.8 mm
01:34 12.0 °C 12.0 °C 1002.9 hPa SSW 16.3 km/h 21.9 km/h 98% 3.0 mm
01:35 12.0 °C 12.0 °C 1002.9 hPa WSW 20.1 km/h 21.9 km/h 98% 3.0 mm
01:40 12.2 °C 12.0 °C 1002.9 hPa SSW 17.2 km/h 24.5 km/h 98% 2.8 mm
01:43 12.2 °C 12.0 °C 1002.9 hPa SW 18.3 km/h 24.5 km/h 98% 2.8 mm
01:48 12.3 °C 13.0 °C 1002.9 hPa SW 22.7 km/h 24.8 km/h 98% 2.8 mm
01:52 12.3 °C 13.0 °C 1002.9 hPa SSW 14.0 km/h 24.8 km/h 98% 2.8 mm
01:57 12.4 °C 13.0 °C 1002.9 hPa WSW 17.2 km/h 28.8 km/h 98% 2.3 mm
02:02 12.4 °C 13.0 °C 1002.9 hPa WSW 15.8 km/h 28.8 km/h 98% 1.8 mm
02:07 12.5 °C 13.0 °C 1002.9 hPa SSW 20.6 km/h 26.2 km/h 98% 1.8 mm
02:11 12.5 °C 13.0 °C 1002.9 hPa SW 25.6 km/h 25.6 km/h 98% 1.5 mm
02:16 12.5 °C 13.0 °C 1002.9 hPa SW 16.3 km/h 25.6 km/h 98% 1.3 mm
02:17 12.5 °C 13.0 °C 1002.9 hPa SSW 29.1 km/h 29.1 km/h 98% 1.3 mm
02:22 12.5 °C 13.0 °C 1002.9 hPa SW 13.7 km/h 29.1 km/h 98% 0.8 mm
02:24 12.5 °C 13.0 °C 1002.9 hPa WSW 24.5 km/h 29.1 km/h 98% 0.8 mm
02:29 12.6 °C 13.0 °C 1002.9 hPa WSW 28.0 km/h 30.6 km/h 98% 0.5 mm
02:34 12.5 °C 13.0 °C 1002.9 hPa WSW 27.7 km/h 30.6 km/h 98% 0.3 mm
02:36 12.5 °C 13.0 °C 1002.9 hPa WSW 20.6 km/h 30.6 km/h 98% 0.3 mm
02:41 12.5 °C 13.0 °C 1002.9 hPa WSW 17.2 km/h 27.7 km/h 98% 0.5 mm
02:46 12.5 °C 13.0 °C 1002.9 hPa SSW 15.4 km/h 32.0 km/h 98% 0.5 mm
02:48 12.5 °C 13.0 °C 1002.9 hPa SW 18.0 km/h 32.0 km/h 98% 0.5 mm
02:53 12.5 °C 13.0 °C 1002.9 hPa SW 12.2 km/h 32.0 km/h 98% 0.3 mm
02:55 12.5 °C 13.0 °C 1002.9 hPa SSW 14.0 km/h 24.8 km/h 98% 0.5 mm
03:00 12.5 °C 13.0 °C 1002.9 hPa SW 21.2 km/h 21.2 km/h 98% 0.5 mm
03:02 12.5 °C 13.0 °C 1002.9 hPa WSW 19.5 km/h 24.8 km/h 98% 1.0 mm
03:07 12.5 °C 13.0 °C 1002.9 hPa WSW 14.0 km/h 24.8 km/h 98% 1.3 mm
03:12 12.5 °C 13.0 °C 1002.9 hPa WSW 12.6 km/h 21.6 km/h 98% 1.3 mm
03:14 12.5 °C 13.0 °C 1002.9 hPa SSW 17.7 km/h 22.4 km/h 98% 1.3 mm
03:16 12.4 °C 13.0 °C 1002.9 hPa SSW 14.0 km/h 23.8 km/h 98% 1.5 mm
03:21 12.4 °C 13.0 °C 1002.9 hPa South 12.6 km/h 23.8 km/h 98% 1.5 mm
03:23 12.4 °C 13.0 °C 1002.9 hPa SW 12.2 km/h 23.8 km/h 98% 1.5 mm
03:27 12.4 °C 13.0 °C 1002.9 hPa SW 12.6 km/h 21.2 km/h 98% 1.5 mm
03:30 12.4 °C 13.0 °C 1002.9 hPa SSW 12.2 km/h 20.1 km/h 98% 1.5 mm
03:31 12.3 °C 13.0 °C 1002.9 hPa SW 16.3 km/h 20.1 km/h 98% 1.5 mm
03:36 12.3 °C 13.0 °C 1002.9 hPa SSW 16.9 km/h 20.9 km/h 98% 1.5 mm
03:37 12.3 °C 13.0 °C 1002.9 hPa SW 13.0 km/h 20.9 km/h 98% 1.5 mm
03:40 12.3 °C 13.0 °C 1002.9 hPa SSW 16.6 km/h 20.9 km/h 98% 1.8 mm
03:45 12.4 °C 13.0 °C 1001.9 hPa SSW 19.1 km/h 21.2 km/h 98% 1.5 mm
03:49 12.5 °C 13.0 °C 1001.9 hPa SSW 23.3 km/h 27.4 km/h 98% 1.5 mm
03:54 12.5 °C 13.0 °C 1001.9 hPa SSW 19.5 km/h 27.4 km/h 98% 1.5 mm
03:55 12.5 °C 13.0 °C 1001.9 hPa SSW 28.0 km/h 28.0 km/h 98% 1.3 mm
04:00 12.6 °C 13.0 °C 1001.9 hPa WSW 16.9 km/h 28.0 km/h 98% 1.3 mm
04:05 12.7 °C 13.0 °C 1001.9 hPa WSW 21.2 km/h 30.9 km/h 98% 0.8 mm
04:06 12.8 °C 13.0 °C 1001.9 hPa SW 23.0 km/h 30.9 km/h 98% 0.5 mm
04:07 12.8 °C 13.0 °C 1001.9 hPa SW 25.6 km/h 30.9 km/h 98% 0.5 mm
04:13 12.9 °C 13.0 °C 1001.9 hPa SSW 15.4 km/h 30.9 km/h 98% 0.5 mm
04:18 13.0 °C 13.0 °C 1001.9 hPa SSW 24.5 km/h 31.7 km/h 98% 0.3 mm
04:24 13.1 °C 13.0 °C 1001.9 hPa SSW 25.3 km/h 41.4 km/h 97% 0.3 mm
04:29 13.2 °C 13.0 °C 1001.9 hPa WSW 28.8 km/h 41.4 km/h 95% 0.3 mm
04:31 13.2 °C 13.0 °C 1001.9 hPa SW 28.5 km/h 32.0 km/h 95% 0.3 mm
04:36 13.4 °C 13.0 °C 1001.9 hPa SW 22.4 km/h 42.2 km/h 93% 0.3 mm
04:37 13.4 °C 13.0 °C 1001.9 hPa SW 24.5 km/h 42.2 km/h 93% 0.3 mm
04:42 13.4 °C 12.0 °C 1001.9 hPa SSW 27.4 km/h 42.2 km/h 92% 0.0 mm
04:47 13.5 °C 13.0 °C 1001.9 hPa SSW 20.1 km/h 42.2 km/h 91% 0.0 mm
04:49 13.5 °C 12.0 °C 1001.9 hPa SW 17.7 km/h 42.2 km/h 90% 0.0 mm
04:54 13.5 °C 12.0 °C 1001.9 hPa WSW 24.5 km/h 31.4 km/h 90% 0.0 mm
04:58 13.5 °C 12.0 °C 1001.9 hPa WSW 23.0 km/h 38.5 km/h 89% 0.0 mm
05:03 13.5 °C 12.0 °C 1001.9 hPa SSW 18.3 km/h 38.5 km/h 89% 0.0 mm
05:08 13.5 °C 12.0 °C 1001.9 hPa WSW 25.3 km/h 27.0 km/h 89% 0.0 mm
05:13 13.5 °C 12.0 °C 1001.9 hPa SW 24.8 km/h 34.3 km/h 88% 0.0 mm
05:14 13.5 °C 12.0 °C 1001.9 hPa SSW 28.0 km/h 34.3 km/h 88% 0.0 mm
05:19 13.5 °C 12.0 °C 1001.9 hPa SSW 16.6 km/h 34.3 km/h 88% 0.0 mm
05:23 13.5 °C 12.0 °C 1001.9 hPa SW 35.2 km/h 35.2 km/h 87% 0.0 mm
05:28 13.5 °C 12.0 °C 1001.9 hPa SSW 25.3 km/h 35.2 km/h 87% 0.0 mm
05:30 13.5 °C 12.0 °C 1001.9 hPa SW 16.3 km/h 35.2 km/h 87% 0.0 mm
05:35 13.5 °C 12.0 °C 1001.9 hPa South 17.2 km/h 34.6 km/h 87% 0.0 mm
05:36 13.5 °C 12.0 °C 1001.9 hPa SSW 28.0 km/h 32.8 km/h 87% 0.0 mm
05:41 13.5 °C 12.0 °C 1000.9 hPa SSW 17.2 km/h 31.4 km/h 87% 0.0 mm
05:43 13.5 °C 12.0 °C 1000.9 hPa SSW 20.9 km/h 31.4 km/h 87% 0.0 mm
05:48 13.4 °C 11.0 °C 1000.9 hPa WSW 16.6 km/h 31.4 km/h 86% 0.0 mm
05:50 13.4 °C 11.0 °C 1000.9 hPa SW 21.2 km/h 30.2 km/h 86% 0.0 mm
05:54 13.4 °C 11.0 °C 1000.9 hPa SW 16.9 km/h 30.2 km/h 86% 0.0 mm
05:57 13.4 °C 11.0 °C 1000.9 hPa SSW 30.9 km/h 30.9 km/h 86% 0.0 mm
06:00 13.4 °C 11.0 °C 1000.9 hPa SSW 20.9 km/h 31.4 km/h 86% 0.0 mm
06:05 13.5 °C 12.0 °C 1000.9 hPa SW 27.7 km/h 31.4 km/h 85% 0.0 mm
06:09 13.5 °C 12.0 °C 1000.9 hPa SSW 16.6 km/h 30.2 km/h 85% 0.0 mm
06:14 13.6 °C 11.0 °C 1000.9 hPa SSW 23.0 km/h 30.2 km/h 84% 0.0 mm
06:15 13.6 °C 11.0 °C 1000.9 hPa SSW 25.3 km/h 30.2 km/h 84% 0.0 mm
06:20 13.6 °C 11.0 °C 1000.9 hPa SW 23.8 km/h 30.6 km/h 84% 0.0 mm
06:24 13.6 °C 11.0 °C 1000.9 hPa WSW 28.8 km/h 32.0 km/h 84% 0.0 mm
06:28 13.5 °C 11.0 °C 1000.9 hPa SSW 21.2 km/h 33.8 km/h 84% 0.0 mm
06:29 13.5 °C 12.0 °C 1000.9 hPa SW 27.0 km/h 33.8 km/h 85% 0.0 mm
06:34 13.3 °C 11.0 °C 1000.9 hPa SW 29.9 km/h 33.8 km/h 85% 0.0 mm
06:35 13.3 °C 11.0 °C 1000.9 hPa SW 27.4 km/h 33.8 km/h 85% 0.0 mm
06:36 13.3 °C 11.0 °C 1000.9 hPa SSW 36.4 km/h 36.4 km/h 85% 0.0 mm
06:37 13.3 °C 11.0 °C 1000.9 hPa SW 28.0 km/h 36.4 km/h 86% 0.0 mm
06:41 13.3 °C 11.0 °C 1000.9 hPa SSW 20.9 km/h 36.4 km/h 86% 0.0 mm
06:44 13.3 °C 11.0 °C 1000.9 hPa SSW 16.9 km/h 36.7 km/h 86% 0.0 mm
06:48 13.2 °C 12.0 °C 1000.9 hPa WSW 28.5 km/h 36.7 km/h 87% 0.0 mm
06:51 13.2 °C 12.0 °C 1000.9 hPa SSW 17.7 km/h 36.7 km/h 87% 0.0 mm
06:56 13.0 °C 12.0 °C 1000.9 hPa SW 34.6 km/h 34.6 km/h 89% 0.0 mm
06:58 12.9 °C 12.0 °C 1000.9 hPa SW 17.7 km/h 34.6 km/h 90% 0.0 mm
07:02 12.8 °C 12.0 °C 1000.9 hPa SSW 20.1 km/h 38.5 km/h 91% 0.0 mm
07:04 12.7 °C 12.0 °C 1000.9 hPa SW 23.0 km/h 38.5 km/h 92% 0.0 mm
07:09 12.5 °C 12.0 °C 1000.9 hPa SSW 24.5 km/h 38.5 km/h 93% 0.0 mm
07:14 12.5 °C 12.0 °C 999.9 hPa SW 25.9 km/h 33.1 km/h 93% 0.0 mm
07:15 12.5 °C 12.0 °C 999.9 hPa SSW 17.7 km/h 31.7 km/h 94% 0.0 mm
07:21 12.4 °C 12.0 °C 999.9 hPa SW 28.5 km/h 35.2 km/h 94% 0.0 mm
07:23 12.4 °C 12.0 °C 999.9 hPa SSW 20.9 km/h 35.2 km/h 95% 0.0 mm
07:28 12.4 °C 12.0 °C 1000.9 hPa SW 24.5 km/h 35.2 km/h 95% 0.0 mm
07:29 12.4 °C 12.0 °C 1000.9 hPa SSW 24.5 km/h 35.2 km/h 95% 0.0 mm
07:34 12.5 °C 12.0 °C 1000.9 hPa WSW 20.1 km/h 28.0 km/h 95% 0.0 mm
07:36 12.5 °C 13.0 °C 1000.9 hPa SW 20.1 km/h 28.0 km/h 96% 0.0 mm
07:41 12.5 °C 12.0 °C 1000.9 hPa SSW 17.7 km/h 31.4 km/h 95% 0.0 mm
07:46 12.6 °C 12.0 °C 1000.9 hPa WSW 27.4 km/h 31.4 km/h 95% 0.0 mm
07:47 12.6 °C 12.0 °C 1000.9 hPa SSW 19.8 km/h 31.4 km/h 95% 0.0 mm
07:49 12.6 °C 12.0 °C 1000.9 hPa SSW 25.3 km/h 30.2 km/h 95% 0.0 mm
07:54 12.7 °C 12.0 °C 1000.9 hPa SW 31.4 km/h 31.4 km/h 95% 0.0 mm
07:55 12.7 °C 12.0 °C 1000.9 hPa SW 20.6 km/h 31.4 km/h 95% 0.0 mm
07:56 12.7 °C 12.0 °C 1000.9 hPa SW 17.2 km/h 31.4 km/h 95% 0.0 mm
08:01 12.7 °C 12.0 °C 1000.9 hPa SSW 25.6 km/h 38.1 km/h 95% 0.0 mm
08:03 12.7 °C 12.0 °C 1000.9 hPa SSW 23.3 km/h 38.1 km/h 95% 0.0 mm
08:04 12.7 °C 12.0 °C 1000.9 hPa SW 31.7 km/h 38.1 km/h 95% 0.0 mm
08:09 12.7 °C 12.0 °C 1000.9 hPa South 24.5 km/h 31.7 km/h 95% 0.0 mm
08:14 12.6 °C 12.0 °C 1000.9 hPa SSW 25.9 km/h 32.0 km/h 95% 0.0 mm
08:16 12.6 °C 13.0 °C 1000.9 hPa SSW 16.9 km/h 32.0 km/h 96% 0.0 mm
08:21 12.7 °C 13.0 °C 1000.9 hPa SSW 23.3 km/h 31.7 km/h 96% 0.0 mm
08:24 12.7 °C 12.0 °C 1000.9 hPa SW 20.9 km/h 32.0 km/h 95% 0.0 mm
08:30 12.8 °C 13.0 °C 1000.9 hPa SW 17.7 km/h 32.0 km/h 95% 0.0 mm
08:35 12.8 °C 13.0 °C 1000.9 hPa SSW 13.0 km/h 35.6 km/h 95% 0.0 mm
08:36 12.8 °C 13.0 °C 1000.9 hPa SW 30.6 km/h 35.6 km/h 95% 0.0 mm
08:41 12.9 °C 13.0 °C 1000.9 hPa South 17.7 km/h 35.6 km/h 95% 0.0 mm
08:42 12.9 °C 12.0 °C 1000.9 hPa South 24.5 km/h 35.6 km/h 94% 0.0 mm
08:47 12.9 °C 12.0 °C 1000.9 hPa WSW 16.9 km/h 30.2 km/h 94% 0.0 mm
08:52 13.0 °C 12.0 °C 1000.9 hPa SW 18.0 km/h 31.7 km/h 93% 0.0 mm
08:54 13.0 °C 12.0 °C 1000.9 hPa SSW 16.6 km/h 31.7 km/h 93% 0.0 mm
08:56 13.0 °C 12.0 °C 999.9 hPa WSW 12.6 km/h 31.7 km/h 93% 0.0 mm
09:01 13.0 °C 12.0 °C 999.9 hPa SW 20.6 km/h 28.0 km/h 93% 0.0 mm
09:06 13.1 °C 12.0 °C 999.9 hPa South 19.5 km/h 28.0 km/h 92% 0.0 mm
09:09 13.1 °C 12.0 °C 999.9 hPa WSW 17.7 km/h 28.0 km/h 92% 0.0 mm
09:14 13.1 °C 12.0 °C 999.9 hPa SW 14.0 km/h 28.0 km/h 92% 0.0 mm
09:15 13.1 °C 12.0 °C 999.9 hPa WSW 28.0 km/h 28.0 km/h 92% 0.0 mm
09:18 13.1 °C 12.0 °C 999.9 hPa South 19.5 km/h 28.0 km/h 92% 0.0 mm
09:23 13.1 °C 12.0 °C 999.9 hPa South 23.3 km/h 28.0 km/h 92% 0.0 mm
09:27 13.1 °C 12.0 °C 999.9 hPa SSW 27.4 km/h 31.7 km/h 92% 0.0 mm
09:32 13.1 °C 12.0 °C 999.9 hPa SW 24.5 km/h 32.0 km/h 92% 0.0 mm
09:34 13.1 °C 12.0 °C 999.9 hPa SSW 22.7 km/h 32.0 km/h 92% 0.0 mm
09:39 13.2 °C 12.0 °C 999.9 hPa SSW 22.7 km/h 32.0 km/h 92% 0.0 mm
09:42 13.2 °C 12.0 °C 999.9 hPa WSW 16.6 km/h 30.9 km/h 92% 0.0 mm
09:44 13.2 °C 12.0 °C 999.9 hPa SSW 21.2 km/h 32.3 km/h 92% 0.0 mm
09:49 13.4 °C 12.0 °C 999.9 hPa South 17.7 km/h 32.3 km/h 92% 0.0 mm
09:51 13.4 °C 12.0 °C 999.9 hPa SW 17.2 km/h 32.3 km/h 92% 0.0 mm
09:55 13.5 °C 13.0 °C 999.9 hPa SSW 14.3 km/h 28.0 km/h 91% 0.0 mm
09:58 13.5 °C 13.0 °C 999.9 hPa South 20.6 km/h 27.4 km/h 91% 0.0 mm
10:03 13.5 °C 13.0 °C 999.9 hPa SSW 24.5 km/h 30.6 km/h 91% 0.0 mm
10:04 13.5 °C 13.0 °C 999.9 hPa WSW 19.8 km/h 30.6 km/h 91% 0.0 mm
10:07 13.6 °C 13.0 °C 999.9 hPa WSW 12.2 km/h 30.6 km/h 91% 0.0 mm
10:09 13.6 °C 13.0 °C 999.9 hPa South 15.8 km/h 30.6 km/h 91% 0.0 mm
10:14 13.6 °C 12.0 °C 999.9 hPa SW 20.1 km/h 28.5 km/h 90% 0.0 mm
10:19 13.7 °C 12.0 °C 999.9 hPa SW 15.1 km/h 29.9 km/h 90% 0.0 mm
10:20 13.7 °C 12.0 °C 999.9 hPa SSW 20.1 km/h 29.9 km/h 90% 0.0 mm
10:25 13.7 °C 12.0 °C 999.9 hPa SSW 25.6 km/h 29.9 km/h 89% 0.0 mm
10:27 13.7 °C 12.0 °C 999.9 hPa WSW 20.1 km/h 29.9 km/h 89% 0.0 mm
10:32 13.7 °C 12.0 °C 999.9 hPa SSW 13.0 km/h 26.7 km/h 89% 0.0 mm
10:34 13.7 °C 12.0 °C 999.9 hPa SSW 16.6 km/h 25.9 km/h 89% 0.0 mm
10:36 13.7 °C 12.0 °C 999.9 hPa WSW 16.9 km/h 25.9 km/h 89% 0.0 mm
10:39 13.7 °C 12.0 °C 999.9 hPa SSW 16.6 km/h 27.7 km/h 89% 0.0 mm
10:45 13.8 °C 12.0 °C 998.9 hPa SW 36.7 km/h 42.2 km/h 88% 0.0 mm
10:46 13.8 °C 12.0 °C 998.9 hPa WSW 19.5 km/h 42.2 km/h 88% 0.0 mm
10:51 14.0 °C 12.0 °C 998.9 hPa SSW 27.4 km/h 42.2 km/h 86% 0.0 mm
10:55 14.1 °C 12.0 °C 998.9 hPa SSW 20.6 km/h 36.7 km/h 86% 0.0 mm
10:56 14.1 °C 12.0 °C 998.9 hPa WSW 21.6 km/h 36.7 km/h 86% 0.0 mm
11:01 14.1 °C 12.0 °C 998.9 hPa SW 24.8 km/h 39.3 km/h 85% 0.0 mm
11:02 14.1 °C 12.0 °C 998.9 hPa SSW 31.4 km/h 39.3 km/h 85% 0.0 mm
11:04 14.1 °C 12.0 °C 998.9 hPa SSW 25.6 km/h 39.3 km/h 85% 0.0 mm
11:08 14.1 °C 12.0 °C 998.9 hPa SW 33.8 km/h 39.3 km/h 84% 0.0 mm
11:13 14.1 °C 12.0 °C 997.9 hPa WSW 16.9 km/h 38.1 km/h 85% 0.0 mm
11:18 14.1 °C 12.0 °C 997.9 hPa SW 32.8 km/h 44.2 km/h 84% 0.0 mm
11:19 14.1 °C 12.0 °C 997.9 hPa SSW 25.3 km/h 44.2 km/h 84% 0.0 mm
11:23 14.2 °C 12.0 °C 997.9 hPa SW 26.2 km/h 44.2 km/h 85% 0.0 mm
11:28 14.1 °C 12.0 °C 998.9 hPa SW 20.9 km/h 38.5 km/h 84% 0.0 mm
11:34 14.1 °C 12.0 °C 998.9 hPa SW 24.5 km/h 38.5 km/h 85% 0.0 mm
11:38 14.1 °C 12.0 °C 998.9 hPa SW 43.1 km/h 44.6 km/h 84% 0.0 mm
11:43 14.1 °C 11.0 °C 998.9 hPa WSW 21.6 km/h 44.6 km/h 83% 0.0 mm
11:49 14.2 °C 12.0 °C 998.9 hPa WSW 24.5 km/h 39.6 km/h 83% 0.0 mm
11:50 14.2 °C 12.0 °C 998.9 hPa South 16.9 km/h 39.6 km/h 83% 0.0 mm
11:55 14.2 °C 12.0 °C 998.9 hPa SSW 35.6 km/h 42.8 km/h 82% 0.0 mm
11:57 14.2 °C 12.0 °C 998.9 hPa SW 33.5 km/h 42.8 km/h 82% 0.0 mm
12:02 14.1 °C 11.0 °C 998.9 hPa WSW 36.0 km/h 40.4 km/h 82% 0.0 mm
12:04 13.9 °C 12.0 °C 998.9 hPa WSW 32.0 km/h 40.4 km/h 86% 0.0 mm
12:09 13.2 °C 12.0 °C 998.9 hPa West 27.0 km/h 46.0 km/h 90% 1.5 mm
12:10 13.1 °C 12.0 °C 998.9 hPa WSW 38.9 km/h 46.0 km/h 90% 1.8 mm
12:11 13.0 °C 12.0 °C 998.9 hPa WSW 40.4 km/h 46.0 km/h 91% 2.3 mm
12:16 12.7 °C 12.0 °C 998.9 hPa WSW 20.1 km/h 46.0 km/h 93% 2.3 mm
12:17 12.7 °C 12.0 °C 998.9 hPa WSW 25.3 km/h 46.0 km/h 94% 2.5 mm
12:18 12.7 °C 12.0 °C 998.9 hPa WSW 30.2 km/h 40.7 km/h 94% 2.5 mm
12:22 12.6 °C 12.0 °C 998.9 hPa WSW 24.5 km/h 41.4 km/h 95% 2.5 mm
12:27 12.5 °C 13.0 °C 997.9 hPa West 32.0 km/h 42.5 km/h 96% 2.8 mm
12:31 12.5 °C 13.0 °C 997.9 hPa WSW 21.2 km/h 42.5 km/h 97% 2.8 mm
12:34 12.5 °C 13.0 °C 997.9 hPa SW 22.4 km/h 42.5 km/h 98% 3.0 mm
12:39 12.5 °C 13.0 °C 997.9 hPa WSW 27.7 km/h 32.0 km/h 98% 3.0 mm
12:42 12.4 °C 13.0 °C 998.9 hPa West 17.7 km/h 32.3 km/h 98% 3.3 mm
12:47 12.4 °C 13.0 °C 998.9 hPa WSW 32.0 km/h 38.9 km/h 98% 3.3 mm
12:49 12.3 °C 13.0 °C 998.9 hPa WSW 25.9 km/h 38.9 km/h 98% 3.8 mm
12:54 12.3 °C 13.0 °C 998.9 hPa WSW 24.8 km/h 38.9 km/h 98% 3.8 mm
12:59 12.2 °C 12.0 °C 998.9 hPa WSW 24.8 km/h 28.5 km/h 98% 3.8 mm
13:03 12.2 °C 12.0 °C 998.9 hPa WSW 21.2 km/h 27.4 km/h 98% 3.8 mm
13:04 12.2 °C 12.0 °C 998.9 hPa WSW 16.9 km/h 27.4 km/h 98% 4.1 mm
13:09 12.2 °C 12.0 °C 998.9 hPa SW 17.7 km/h 24.5 km/h 98% 2.3 mm
13:12 12.2 °C 12.0 °C 998.9 hPa WSW 21.6 km/h 24.5 km/h 98% 1.8 mm
13:17 12.2 °C 12.0 °C 998.9 hPa SW 23.8 km/h 24.8 km/h 98% 1.8 mm
13:22 12.2 °C 12.0 °C 998.9 hPa WSW 15.4 km/h 24.8 km/h 98% 1.8 mm
13:27 12.2 °C 12.0 °C 998.9 hPa WSW 15.1 km/h 24.8 km/h 98% 1.5 mm
13:32 12.2 °C 12.0 °C 998.9 hPa WSW 17.2 km/h 23.3 km/h 98% 1.3 mm
13:37 12.2 °C 12.0 °C 998.9 hPa WSW 19.5 km/h 27.0 km/h 98% 1.5 mm
13:38 12.2 °C 12.0 °C 998.9 hPa WSW 18.3 km/h 27.7 km/h 98% 1.5 mm
13:43 12.1 °C 12.0 °C 998.9 hPa SW 16.9 km/h 28.0 km/h 98% 1.3 mm
13:45 12.1 °C 12.0 °C 998.9 hPa WSW 16.6 km/h 28.0 km/h 98% 1.3 mm
13:50 12.1 °C 12.0 °C 998.9 hPa WSW 17.7 km/h 21.9 km/h 98% 1.3 mm
13:52 12.1 °C 12.0 °C 998.9 hPa WSW 25.6 km/h 25.6 km/h 98% 1.3 mm
13:57 12.1 °C 12.0 °C 998.9 hPa SW 19.8 km/h 25.6 km/h 98% 1.3 mm
14:01 12.1 °C 12.0 °C 998.9 hPa SW 16.3 km/h 25.6 km/h 98% 1.3 mm
14:06 12.1 °C 12.0 °C 998.9 hPa SW 17.2 km/h 24.8 km/h 98% 0.8 mm
14:11 12.1 °C 12.0 °C 997.9 hPa SW 15.8 km/h 27.4 km/h 98% 1.3 mm
14:15 12.1 °C 12.0 °C 997.9 hPa WSW 12.6 km/h 28.5 km/h 98% 1.3 mm
14:18 12.1 °C 12.0 °C 997.9 hPa SW 19.1 km/h 28.5 km/h 98% 0.8 mm
14:21 12.1 °C 12.0 °C 997.9 hPa SW 12.2 km/h 28.5 km/h 98% 1.3 mm
14:26 12.1 °C 12.0 °C 997.9 hPa SW 13.7 km/h 21.2 km/h 98% 1.3 mm
14:28 12.1 °C 12.0 °C 997.9 hPa WSW 9.3 km/h 21.2 km/h 98% 1.3 mm
14:33 12.0 °C 12.0 °C 997.9 hPa SW 20.1 km/h 21.2 km/h 98% 1.0 mm
14:35 12.0 °C 12.0 °C 997.9 hPa SW 12.6 km/h 20.6 km/h 98% 1.3 mm
14:40 12.0 °C 12.0 °C 997.9 hPa WSW 7.9 km/h 20.6 km/h 98% 1.3 mm
14:44 12.0 °C 12.0 °C 997.9 hPa WSW 11.9 km/h 20.1 km/h 98% 1.3 mm
14:49 12.0 °C 12.0 °C 997.9 hPa SW 13.0 km/h 24.8 km/h 98% 1.3 mm
14:53 11.9 °C 12.0 °C 997.9 hPa WSW 12.2 km/h 24.8 km/h 98% 1.3 mm
14:58 11.9 °C 12.0 °C 997.9 hPa WSW 20.9 km/h 24.8 km/h 98% 1.3 mm
14:59 11.9 °C 12.0 °C 997.9 hPa SSW 10.1 km/h 20.9 km/h 98% 1.3 mm
15:03 11.8 °C 12.0 °C 997.9 hPa WSW 13.7 km/h 21.2 km/h 98% 1.3 mm
15:06 11.8 °C 12.0 °C 997.9 hPa SSW 16.9 km/h 21.2 km/h 98% 1.5 mm
15:11 11.8 °C 12.0 °C 997.9 hPa SW 15.4 km/h 21.2 km/h 98% 1.3 mm
15:16 11.8 °C 12.0 °C 997.9 hPa SW 13.7 km/h 20.9 km/h 98% 1.5 mm
15:21 11.8 °C 12.0 °C 997.9 hPa SSW 9.7 km/h 20.9 km/h 98% 1.3 mm
15:26 11.8 °C 12.0 °C 996.8 hPa SSW 3.5 km/h 15.8 km/h 98% 1.3 mm
15:31 11.8 °C 12.0 °C 996.8 hPa SSW 11.9 km/h 15.8 km/h 98% 1.5 mm
15:35 11.8 °C 12.0 °C 996.8 hPa SW 11.6 km/h 14.0 km/h 98% 1.3 mm
15:40 11.8 °C 12.0 °C 996.8 hPa SSW 11.6 km/h 14.0 km/h 98% 1.3 mm
15:45 11.8 °C 12.0 °C 996.8 hPa SW 11.9 km/h 14.0 km/h 98% 1.3 mm
15:47 11.7 °C 12.0 °C 996.8 hPa SW 9.3 km/h 14.0 km/h 98% 0.8 mm
15:52 11.7 °C 12.0 °C 996.8 hPa WSW 10.5 km/h 14.0 km/h 98% 1.3 mm
15:53 11.7 °C 12.0 °C 996.8 hPa SW 9.7 km/h 14.0 km/h 98% 1.3 mm
15:58 11.7 °C 12.0 °C 996.8 hPa SSW 11.9 km/h 14.0 km/h 98% 1.3 mm
16:01 11.7 °C 12.0 °C 996.8 hPa SW 8.7 km/h 14.0 km/h 98% 1.3 mm
16:06 11.7 °C 12.0 °C 996.8 hPa SW 10.1 km/h 14.0 km/h 98% 0.8 mm
16:07 11.7 °C 12.0 °C 996.8 hPa SW 10.5 km/h 14.0 km/h 98% 0.8 mm
16:08 11.7 °C 12.0 °C 996.8 hPa SW 12.6 km/h 14.0 km/h 98% 0.8 mm
16:13 11.7 °C 12.0 °C 996.2 hPa SW 13.7 km/h 15.4 km/h 98% 0.5 mm
16:16 11.7 °C 12.0 °C 996.2 hPa SSW 16.6 km/h 17.7 km/h 98% 0.5 mm
16:21 11.7 °C 12.0 °C 996.2 hPa SSW 15.1 km/h 17.7 km/h 98% 1.0 mm
16:26 11.7 °C 12.0 °C 996.8 hPa WSW 15.4 km/h 21.2 km/h 98% 1.0 mm
16:31 11.7 °C 12.0 °C 996.8 hPa SSW 13.7 km/h 23.8 km/h 98% 0.8 mm
16:36 11.6 °C 12.0 °C 996.8 hPa SW 17.2 km/h 23.8 km/h 98% 0.8 mm
16:39 11.6 °C 12.0 °C 996.8 hPa SSW 19.8 km/h 21.2 km/h 98% 0.8 mm
16:44 11.6 °C 12.0 °C 996.8 hPa WSW 21.6 km/h 21.6 km/h 98% 1.0 mm
16:47 11.6 °C 12.0 °C 996.8 hPa SW 22.4 km/h 22.4 km/h 98% 1.0 mm
16:50 11.5 °C 12.0 °C 996.8 hPa SW 20.9 km/h 22.4 km/h 98% 0.8 mm
16:52 11.5 °C 12.0 °C 996.8 hPa SW 12.2 km/h 22.4 km/h 98% 0.8 mm
16:57 11.5 °C 12.0 °C 996.8 hPa SW 17.2 km/h 28.0 km/h 98% 0.8 mm
17:00 11.5 °C 12.0 °C 996.8 hPa SSW 16.9 km/h 28.0 km/h 98% 0.8 mm
17:05 11.5 °C 12.0 °C 996.8 hPa SW 14.0 km/h 28.0 km/h 98% 0.8 mm
17:06 11.5 °C 12.0 °C 996.8 hPa SW 14.0 km/h 20.1 km/h 98% 1.0 mm
17:10 11.5 °C 12.0 °C 996.8 hPa SSW 12.2 km/h 23.0 km/h 98% 1.0 mm
17:13 11.5 °C 12.0 °C 996.8 hPa SW 20.1 km/h 23.0 km/h 98% 1.0 mm
17:18 11.5 °C 12.0 °C 996.8 hPa SW 13.0 km/h 23.8 km/h 98% 1.0 mm
17:19 11.5 °C 12.0 °C 996.8 hPa WSW 19.8 km/h 23.8 km/h 98% 1.0 mm
17:24 11.4 °C 11.0 °C 996.8 hPa WSW 17.2 km/h 21.2 km/h 98% 0.8 mm
17:25 11.4 °C 11.0 °C 996.8 hPa WSW 16.9 km/h 21.2 km/h 98% 0.8 mm
17:30 11.4 °C 11.0 °C 996.8 hPa WSW 16.6 km/h 23.8 km/h 98% 0.8 mm
17:31 11.3 °C 11.0 °C 996.8 hPa WSW 16.3 km/h 23.8 km/h 98% 0.8 mm
17:32 11.3 °C 11.0 °C 996.8 hPa SW 14.0 km/h 23.8 km/h 98% 0.8 mm
17:37 11.3 °C 11.0 °C 996.8 hPa SSW 12.6 km/h 23.8 km/h 98% 1.3 mm
17:41 11.3 °C 11.0 °C 996.8 hPa WSW 15.8 km/h 22.4 km/h 98% 1.3 mm
17:44 11.2 °C 11.0 °C 996.8 hPa WSW 21.6 km/h 24.8 km/h 98% 1.3 mm
17:49 11.0 °C 11.0 °C 996.8 hPa WSW 37.0 km/h 38.9 km/h 98% 1.8 mm
17:51 11.0 °C 11.0 °C 996.8 hPa WSW 46.5 km/h 47.5 km/h 98% 2.3 mm
17:56 10.8 °C 11.0 °C 997.9 hPa West 28.8 km/h 47.5 km/h 98% 2.5 mm
17:58 10.7 °C 11.0 °C 997.9 hPa WSW 36.0 km/h 47.5 km/h 98% 2.8 mm
17:59 10.7 °C 11.0 °C 997.9 hPa WSW 33.1 km/h 47.5 km/h 98% 2.8 mm
18:04 10.5 °C 11.0 °C 997.9 hPa SW 25.9 km/h 38.1 km/h 98% 3.0 mm
18:05 10.5 °C 11.0 °C 997.9 hPa WSW 20.1 km/h 38.1 km/h 98% 2.8 mm
18:10 10.3 °C 10.0 °C 997.9 hPa WSW 23.3 km/h 30.6 km/h 98% 3.0 mm
18:14 10.2 °C 10.0 °C 996.8 hPa WSW 22.7 km/h 28.5 km/h 98% 3.0 mm
18:15 10.2 °C 10.0 °C 996.8 hPa WSW 23.8 km/h 28.5 km/h 98% 3.0 mm
18:17 10.1 °C 10.0 °C 996.8 hPa SW 17.2 km/h 28.5 km/h 98% 3.0 mm
18:22 10.0 °C 10.0 °C 996.8 hPa WSW 18.0 km/h 24.8 km/h 98% 2.8 mm
18:23 10.0 °C 10.0 °C 996.8 hPa West 16.3 km/h 24.8 km/h 98% 2.8 mm
18:28 10.0 °C 10.0 °C 996.8 hPa SW 18.3 km/h 30.9 km/h 97% 2.8 mm
18:29 10.0 °C 10.0 °C 996.8 hPa WSW 17.7 km/h 30.9 km/h 97% 2.8 mm
18:34 9.9 °C 10.0 °C 996.8 hPa SW 20.6 km/h 30.9 km/h 98% 3.0 mm
18:35 9.9 °C 10.0 °C 996.8 hPa SW 21.2 km/h 25.9 km/h 98% 3.0 mm
18:36 9.9 °C 10.0 °C 996.8 hPa WSW 23.8 km/h 25.9 km/h 98% 2.8 mm
18:41 9.9 °C 10.0 °C 996.8 hPa SSW 15.8 km/h 25.9 km/h 98% 2.8 mm
18:43 9.9 °C 10.0 °C 996.8 hPa SW 19.8 km/h 24.8 km/h 98% 2.5 mm
18:48 9.9 °C 10.0 °C 996.8 hPa SSW 13.7 km/h 21.2 km/h 98% 1.8 mm
18:49 9.9 °C 10.0 °C 996.8 hPa WSW 11.6 km/h 21.2 km/h 98% 1.5 mm
18:53 9.9 °C 10.0 °C 996.8 hPa SW 12.2 km/h 21.2 km/h 98% 1.3 mm
18:55 9.9 °C 10.0 °C 996.8 hPa SW 12.2 km/h 20.1 km/h 98% 1.3 mm
19:00 9.9 °C 10.0 °C 996.8 hPa SSW 14.0 km/h 20.1 km/h 98% 0.8 mm
19:02 9.9 °C 10.0 °C 996.8 hPa SW 16.9 km/h 17.2 km/h 98% 0.8 mm
19:07 9.9 °C 10.0 °C 996.8 hPa SW 14.0 km/h 20.6 km/h 98% 0.8 mm
19:12 9.9 °C 10.0 °C 996.8 hPa SSW 11.9 km/h 20.6 km/h 98% 0.3 mm
19:18 9.9 °C 10.0 °C 996.8 hPa WSW 20.1 km/h 21.2 km/h 98% 0.3 mm
19:21 9.9 °C 10.0 °C 996.8 hPa SSW 16.6 km/h 21.2 km/h 98% 0.3 mm
19:26 9.9 °C 10.0 °C 996.8 hPa SW 27.0 km/h 28.8 km/h 98% 0.3 mm
19:29 10.0 °C 10.0 °C 996.8 hPa SW 15.4 km/h 28.8 km/h 98% 0.3 mm
19:34 10.0 °C 10.0 °C 996.8 hPa WSW 24.8 km/h 28.8 km/h 97% 0.0 mm
19:35 10.0 °C 10.0 °C 996.8 hPa SW 25.3 km/h 28.8 km/h 97% 0.0 mm
19:39 10.0 °C 10.0 °C 996.8 hPa WSW 26.2 km/h 28.0 km/h 97% 0.0 mm
19:42 10.1 °C 10.0 °C 996.8 hPa WSW 21.2 km/h 28.0 km/h 97% 0.0 mm
19:47 10.1 °C 10.0 °C 996.8 hPa WSW 20.9 km/h 28.0 km/h 97% 0.0 mm
19:50 10.1 °C 10.0 °C 996.8 hPa WSW 16.9 km/h 28.0 km/h 97% 0.0 mm
19:55 10.1 °C 10.0 °C 996.8 hPa WSW 25.3 km/h 38.5 km/h 96% 0.0 mm
19:57 10.1 °C 10.0 °C 996.8 hPa WSW 35.6 km/h 41.0 km/h 96% 0.0 mm
20:02 10.2 °C 9.0 °C 996.8 hPa WSW 23.0 km/h 41.0 km/h 93% 0.0 mm
20:07 10.1 °C 9.0 °C 996.8 hPa WSW 28.0 km/h 39.6 km/h 92% 0.0 mm
20:09 10.1 °C 9.0 °C 996.8 hPa WSW 32.0 km/h 38.5 km/h 92% 0.0 mm
20:14 10.1 °C 9.0 °C 996.2 hPa WSW 38.1 km/h 43.6 km/h 91% 0.0 mm
20:15 10.1 °C 9.0 °C 996.2 hPa SW 24.5 km/h 43.6 km/h 91% 0.0 mm
20:20 10.1 °C 9.0 °C 996.2 hPa WSW 27.7 km/h 43.6 km/h 91% 0.0 mm
20:23 10.1 °C 9.0 °C 996.2 hPa WSW 17.2 km/h 38.5 km/h 91% 0.0 mm
20:25 10.1 °C 9.0 °C 996.2 hPa WSW 23.0 km/h 38.5 km/h 91% 0.0 mm
20:30 10.0 °C 8.0 °C 996.8 hPa WSW 24.5 km/h 38.5 km/h 88% 0.0 mm
20:35 9.9 °C 9.0 °C 996.8 hPa WSW 20.9 km/h 33.5 km/h 89% 0.0 mm
20:38 9.9 °C 9.0 °C 996.8 hPa WSW 24.5 km/h 36.4 km/h 89% 0.0 mm
20:40 9.9 °C 9.0 °C 996.2 hPa WSW 27.7 km/h 39.6 km/h 89% 0.0 mm
20:44 9.8 °C 8.0 °C 996.2 hPa WSW 27.7 km/h 39.6 km/h 90% 0.0 mm
20:49 9.8 °C 8.0 °C 996.2 hPa WSW 32.8 km/h 39.6 km/h 90% 0.0 mm
20:54 9.8 °C 8.0 °C 996.2 hPa WSW 29.9 km/h 35.2 km/h 90% 0.0 mm
20:58 9.9 °C 9.0 °C 996.8 hPa SW 19.8 km/h 32.8 km/h 90% 0.0 mm
21:04 9.9 °C 9.0 °C 996.8 hPa WSW 17.7 km/h 33.5 km/h 89% 0.0 mm
21:09 9.9 °C 8.0 °C 996.8 hPa WSW 25.3 km/h 33.8 km/h 88% 0.0 mm
21:13 9.9 °C 8.0 °C 996.8 hPa WSW 24.5 km/h 37.5 km/h 87% 0.0 mm
21:18 9.8 °C 8.0 °C 996.8 hPa WSW 37.5 km/h 37.5 km/h 87% 0.0 mm
21:23 9.8 °C 8.0 °C 996.8 hPa WSW 29.9 km/h 42.5 km/h 86% 0.0 mm
21:24 9.8 °C 8.0 °C 996.8 hPa WSW 24.8 km/h 42.5 km/h 86% 0.0 mm
21:26 9.8 °C 8.0 °C 996.8 hPa WSW 16.9 km/h 42.5 km/h 86% 0.0 mm
21:31 9.8 °C 8.0 °C 996.8 hPa WSW 24.5 km/h 42.5 km/h 87% 0.0 mm
21:37 9.9 °C 8.0 °C 996.8 hPa WSW 32.0 km/h 32.8 km/h 87% 0.0 mm
21:38 9.9 °C 8.0 °C 996.8 hPa WSW 21.2 km/h 32.8 km/h 87% 0.0 mm
21:43 9.9 °C 8.0 °C 996.8 hPa WSW 37.8 km/h 37.8 km/h 87% 0.0 mm
21:44 9.9 °C 8.0 °C 996.8 hPa WSW 24.8 km/h 37.8 km/h 87% 0.0 mm
21:49 9.9 °C 8.0 °C 996.8 hPa WSW 21.2 km/h 37.8 km/h 85% 0.0 mm
21:51 9.8 °C 8.0 °C 996.8 hPa WSW 26.7 km/h 37.8 km/h 85% 0.0 mm
21:54 9.8 °C 7.0 °C 996.8 hPa WSW 24.8 km/h 41.4 km/h 84% 0.0 mm
21:56 9.7 °C 7.0 °C 996.8 hPa WSW 24.8 km/h 41.4 km/h 84% 0.0 mm
22:01 9.6 °C 7.0 °C 996.8 hPa WSW 20.9 km/h 41.4 km/h 83% 0.0 mm
22:03 9.6 °C 7.0 °C 996.8 hPa SW 31.4 km/h 39.3 km/h 83% 0.0 mm
22:07 9.5 °C 7.0 °C 996.8 hPa WSW 38.9 km/h 48.9 km/h 81% 0.0 mm
22:08 9.5 °C 6.0 °C 996.8 hPa WSW 35.2 km/h 48.9 km/h 79% 0.0 mm
22:13 9.4 °C 6.0 °C 996.8 hPa WSW 30.6 km/h 60.2 km/h 76% 0.0 mm
22:14 9.4 °C 6.0 °C 996.8 hPa WSW 32.8 km/h 60.2 km/h 76% 0.0 mm
22:19 9.2 °C 6.0 °C 996.8 hPa SW 37.0 km/h 60.2 km/h 77% 0.0 mm
22:24 9.1 °C 6.0 °C 996.8 hPa WSW 31.7 km/h 44.6 km/h 78% 0.0 mm
22:25 9.1 °C 6.0 °C 996.8 hPa WSW 28.0 km/h 44.6 km/h 78% 0.0 mm
22:28 9.1 °C 6.0 °C 996.8 hPa WSW 28.0 km/h 44.6 km/h 78% 0.0 mm
22:32 9.0 °C 6.0 °C 996.8 hPa WSW 19.5 km/h 42.8 km/h 78% 0.0 mm
22:37 9.0 °C 6.0 °C 996.8 hPa SW 38.5 km/h 46.5 km/h 77% 0.0 mm
22:40 9.0 °C 6.0 °C 996.8 hPa WSW 35.6 km/h 46.5 km/h 77% 0.0 mm
22:45 8.9 °C 6.0 °C 996.8 hPa SW 29.1 km/h 44.6 km/h 78% 0.0 mm
22:46 8.9 °C 6.0 °C 996.8 hPa WSW 28.5 km/h 44.6 km/h 78% 0.0 mm
22:51 8.9 °C 6.0 °C 996.8 hPa WSW 37.8 km/h 42.8 km/h 77% 0.0 mm
22:56 8.9 °C 6.0 °C 996.8 hPa SW 32.0 km/h 42.8 km/h 77% 0.0 mm
22:58 8.9 °C 6.0 °C 996.8 hPa WSW 34.3 km/h 46.5 km/h 77% 0.0 mm
23:03 8.8 °C 6.0 °C 996.8 hPa WSW 27.0 km/h 46.5 km/h 77% 0.0 mm
23:06 8.8 °C 6.0 °C 996.8 hPa SW 29.9 km/h 46.5 km/h 77% 0.0 mm
23:11 8.8 °C 6.0 °C 996.8 hPa SW 23.8 km/h 43.6 km/h 77% 0.0 mm
23:14 8.7 °C 5.0 °C 997.9 hPa WSW 30.2 km/h 48.3 km/h 77% 0.0 mm
23:17 8.7 °C 5.0 °C 997.9 hPa WSW 40.7 km/h 48.3 km/h 78% 0.0 mm
23:22 8.8 °C 6.0 °C 997.9 hPa WSW 23.0 km/h 45.7 km/h 78% 0.0 mm
23:23 8.8 °C 6.0 °C 997.9 hPa SW 31.4 km/h 45.7 km/h 78% 0.0 mm
23:28 8.6 °C 6.0 °C 997.9 hPa WSW 28.5 km/h 46.0 km/h 82% 0.0 mm
23:29 8.6 °C 6.0 °C 997.9 hPa WSW 38.1 km/h 46.0 km/h 82% 0.0 mm
23:34 8.4 °C 6.0 °C 997.9 hPa WSW 31.4 km/h 46.0 km/h 85% 0.3 mm
23:35 8.4 °C 6.0 °C 997.9 hPa West 36.4 km/h 46.0 km/h 85% 0.5 mm
23:36 8.4 °C 6.0 °C 997.9 hPa WSW 41.4 km/h 46.0 km/h 85% 0.5 mm
23:41 8.2 °C 6.0 °C 997.9 hPa WSW 25.6 km/h 43.9 km/h 87% 0.5 mm
23:46 8.0 °C 6.0 °C 997.9 hPa WSW 53.3 km/h 53.3 km/h 87% 0.5 mm
23:47 8.0 °C 6.0 °C 997.9 hPa West 44.6 km/h 53.3 km/h 87% 0.8 mm
23:52 7.7 °C 6.0 °C 997.9 hPa WSW 38.1 km/h 53.3 km/h 87% 0.8 mm
23:53 7.7 °C 6.0 °C 997.9 hPa WSW 36.4 km/h 53.3 km/h 87% 0.8 mm
23:58 7.4 °C 6.0 °C 997.9 hPa WSW 31.7 km/h 50.4 km/h 89% 0.8 mm
Données Historique de Météo Turbie

Mise a jour : 22/05/2018 19:44:12
Généré par Cumulus 1.9.4 (1099)